N505ZG KSAN-MMTJ

Flight info

Callsign N505ZG
Flight time 0h 12m
Altitude 9000
Route SE
Aircraft C208/L-SDFGR/C

Departure

Time 2026-05-04 21:21
Airport San Diego International Airport (KSAN)

Arrival

Time 2026-05-04 21:34
Airport General Abelardo L. Rodriguez International Airport (MMTJ)
Time Latitude Longitude Altitude Speed Heading
2026-05-04 21:16 32.73338 -117.17863 20 ft 0 kts 285°
2026-05-04 21:18 32.73338 -117.17864 20 ft 2 kts 285°
2026-05-04 21:18 32.73350 -117.17926 20 ft 9 kts 261°
2026-05-04 21:18 32.73291 -117.17971 20 ft 15 kts 196°
2026-05-04 21:19 32.73220 -117.17926 18 ft 19 kts 107°
2026-05-04 21:19 32.73178 -117.17760 19 ft 17 kts 106°
2026-05-04 21:19 32.73153 -117.17652 19 ft 11 kts 105°
2026-05-04 21:19 32.73131 -117.17582 18 ft 7 kts 132°
2026-05-04 21:20 32.73103 -117.17555 18 ft 2 kts 144°
2026-05-04 21:20 32.73094 -117.17547 18 ft 0 kts 142°
2026-05-04 21:20 32.73053 -117.17524 19 ft 14 kts 176°
2026-05-04 21:20 32.73039 -117.17658 17 ft 26 kts 286°
2026-05-04 21:21 32.73121 -117.18007 36 ft 68 kts 284°
2026-05-04 21:21 32.73253 -117.18602 330 ft 87 kts 286°
2026-05-04 21:21 32.73456 -117.19331 750 ft 99 kts 284°
2026-05-04 21:21 32.73659 -117.20129 1306 ft 99 kts 291°
2026-05-04 21:22 32.73956 -117.20826 1851 ft 92 kts 291°
2026-05-04 21:22 32.74218 -117.21475 2359 ft 84 kts 292°
2026-05-04 21:22 32.74486 -117.22202 2489 ft 107 kts 289°
2026-05-04 21:22 32.74746 -117.23066 2647 ft 112 kts 282°
2026-05-04 21:23 32.74548 -117.23932 2704 ft 116 kts 223°
2026-05-04 21:23 32.73839 -117.24204 3003 ft 110 kts 191°
2026-05-04 21:23 32.73051 -117.24149 3072 ft 117 kts 175°
2026-05-04 21:23 32.72290 -117.23904 3301 ft 113 kts 161°
2026-05-04 21:24 32.71635 -117.23338 3395 ft 124 kts 135°
2026-05-04 21:24 32.71093 -117.22503 3437 ft 131 kts 127°
2026-05-04 21:24 32.70586 -117.21590 3486 ft 134 kts 125°
2026-05-04 21:24 32.70088 -117.20646 3496 ft 140 kts 122°
2026-05-04 21:25 32.69574 -117.19615 3490 ft 148 kts 122°
2026-05-04 21:25 32.69065 -117.18534 3494 ft 151 kts 120°
2026-05-04 21:25 32.68568 -117.17409 3493 ft 154 kts 118°
2026-05-04 21:25 32.68043 -117.16299 3490 ft 154 kts 123°
2026-05-04 21:26 32.67480 -117.15202 3487 ft 156 kts 124°
2026-05-04 21:26 32.66897 -117.14132 3494 ft 157 kts 125°
2026-05-04 21:26 32.66287 -117.13030 3491 ft 159 kts 126°
2026-05-04 21:26 32.65677 -117.11929 3491 ft 159 kts 125°
2026-05-04 21:27 32.65070 -117.10841 3492 ft 160 kts 125°
2026-05-04 21:27 32.64457 -117.09747 3494 ft 158 kts 125°
2026-05-04 21:27 32.63853 -117.08658 3495 ft 158 kts 125°
2026-05-04 21:27 32.63242 -117.07560 3498 ft 161 kts 125°
2026-05-04 21:28 32.62624 -117.06445 3498 ft 162 kts 125°
2026-05-04 21:28 32.61998 -117.05329 3502 ft 162 kts 125°
2026-05-04 21:28 32.61376 -117.04219 3482 ft 163 kts 126°
2026-05-04 21:28 32.60761 -117.03096 3477 ft 162 kts 125°
2026-05-04 21:29 32.60144 -117.01979 3478 ft 162 kts 126°
2026-05-04 21:29 32.59491 -117.00901 3471 ft 160 kts 138°
2026-05-04 21:29 32.58612 -117.00093 3470 ft 160 kts 147°
2026-05-04 21:29 32.57730 -116.99324 3465 ft 158 kts 146°
2026-05-04 21:30 32.56815 -116.98629 3455 ft 156 kts 155°
2026-05-04 21:30 32.55836 -116.98105 3493 ft 153 kts 160°
2026-05-04 21:30 32.54842 -116.97706 3417 ft 145 kts 173°
2026-05-04 21:30 32.53839 -116.97551 3121 ft 141 kts 183°
2026-05-04 21:31 32.52037 -116.96985 2730 ft 144 kts 135°
2026-05-04 21:31 32.51746 -116.95943 2537 ft 132 kts 89°
2026-05-04 21:31 32.51820 -116.94889 2320 ft 127 kts 86°
2026-05-04 21:32 32.51820 -116.93827 2034 ft 130 kts 82°
2026-05-04 21:32 32.52222 -116.92915 1636 ft 129 kts 28°
2026-05-04 21:32 32.53055 -116.92751 1327 ft 117 kts 351°
2026-05-04 21:32 32.53561 -116.93206 1199 ft 83 kts 289°
2026-05-04 21:33 32.53689 -116.93787 1023 ft 64 kts 276°
2026-05-04 21:33 32.53737 -116.94276 898 ft 62 kts 279°
2026-05-04 21:33 32.53819 -116.94800 752 ft 66 kts 277°
2026-05-04 21:33 32.53889 -116.95334 598 ft 67 kts 275°
2026-05-04 21:34 32.53958 -116.95864 500 ft 59 kts 280°
2026-05-04 21:34 32.54011 -116.96263 494 ft 40 kts 278°
2026-05-04 21:34 32.54047 -116.96592 493 ft 42 kts 278°
2026-05-04 21:34 32.54102 -116.96951 489 ft 47 kts 279°
2026-05-04 21:35 32.54155 -116.97210 487 ft 32 kts 288°
2026-05-04 21:35 32.54293 -116.97408 492 ft 25 kts 338°
2026-05-04 21:35 32.54353 -116.97630 496 ft 34 kts 279°
2026-05-04 21:35 32.54394 -116.97922 497 ft 30 kts 277°
2026-05-04 21:36 32.54498 -116.97965 497 ft 10 kts 58°
2026-05-04 21:36 32.54493 -116.97929 497 ft 0 kts 98°
2026-05-04 21:38 32.54502 -116.97902 492 ft 10 kts 15°
2026-05-04 21:39 32.54548 -116.97947 493 ft 11 kts 264°
2026-05-04 21:39 32.54467 -116.97978 497 ft 9 kts 186°
2026-05-04 21:39 32.54460 -116.97979 497 ft 0 kts 187°
2026-05-04 21:40 32.54446 -116.97981 497 ft 11 kts 187°
2026-05-04 21:40 32.54387 -116.97861 497 ft 29 kts 99°
2026-05-04 21:40 32.54350 -116.97593 494 ft 31 kts 99°
2026-05-04 21:40 32.54321 -116.97434 491 ft 12 kts 162°
2026-05-04 21:41 32.54288 -116.97447 494 ft 0 kts 225°
2026-05-04 21:41 32.54278 -116.97464 493 ft 1 kts 239°
2026-05-04 21:41 32.54276 -116.97466 493 ft 0 kts 239°
2026-05-04 21:41 32.54276 -116.97467 494 ft 2 kts 239°
2026-05-04 21:42 32.54240 -116.97573 490 ft 27 kts 249°
2026-05-04 21:42 32.54225 -116.97912 493 ft 65 kts 277°
2026-05-04 21:42 32.54312 -116.98569 694 ft 90 kts 277°
2026-05-04 21:42 32.53975 -116.99191 974 ft 114 kts 198°
2026-05-04 21:43 32.53174 -116.99380 1354 ft 127 kts 185°
2026-05-04 21:43 32.52398 -116.98826 1657 ft 144 kts 117°
2026-05-04 21:43 32.52240 -116.97652 1994 ft 142 kts 93°
2026-05-04 21:43 32.52224 -116.96522 2495 ft 130 kts 86°
2026-05-04 21:44 32.52259 -116.95512 3025 ft 115 kts 83°
2026-05-04 21:44 32.52345 -116.94608 3540 ft 109 kts 77°
2026-05-04 21:44 32.52495 -116.93746 4006 ft 106 kts 71°
2026-05-04 21:44 32.52647 -116.92917 4435 ft 103 kts 85°
2026-05-04 21:45 32.52636 -116.92058 4845 ft 105 kts 84°
2026-05-04 21:45 32.52650 -116.91191 5234 ft 107 kts 85°
2026-05-04 21:45 32.52665 -116.90257 5506 ft 124 kts 85°
2026-05-04 21:45 32.52676 -116.89095 5520 ft 155 kts 87°
2026-05-04 21:46 32.52675 -116.87753 5520 ft 171 kts 87°
2026-05-04 21:46 32.52700 -116.86310 5508 ft 178 kts 86°
2026-05-04 21:46 32.52724 -116.84824 5506 ft 181 kts 87°
2026-05-04 21:46 32.52743 -116.83327 5507 ft 185 kts 86°
2026-05-04 21:47 32.52765 -116.81783 5501 ft 189 kts 86°
2026-05-04 21:47 32.52790 -116.80221 5500 ft 189 kts 88°
2026-05-04 21:47 32.52808 -116.78680 5493 ft 188 kts 87°
2026-05-04 21:47 32.52824 -116.77134 5489 ft 187 kts 87°
2026-05-04 21:48 32.52845 -116.75591 5487 ft 187 kts 86°
2026-05-04 21:48 32.52868 -116.74047 5486 ft 187 kts 87°
2026-05-04 21:48 32.52886 -116.72525 5485 ft 187 kts 86°
2026-05-04 21:48 32.52906 -116.70976 5477 ft 188 kts 88°
2026-05-04 21:49 32.52924 -116.69424 5480 ft 187 kts 87°
2026-05-04 21:49 32.52942 -116.67872 5477 ft 189 kts 88°
2026-05-04 21:49 32.52961 -116.66315 5471 ft 190 kts 88°
2026-05-04 21:49 32.52980 -116.64748 5487 ft 190 kts 88°
2026-05-04 21:50 32.52996 -116.63182 5489 ft 190 kts 88°
2026-05-04 21:50 32.53014 -116.61631 5490 ft 191 kts 88°
2026-05-04 21:50 32.53034 -116.60048 5483 ft 192 kts 88°
2026-05-04 21:50 32.53050 -116.58475 5486 ft 189 kts 88°
2026-05-04 21:51 32.53072 -116.56909 5487 ft 190 kts 88°
2026-05-04 21:51 32.53091 -116.55360 5488 ft 191 kts 89°
2026-05-04 21:51 32.53106 -116.53770 5484 ft 194 kts 89°
2026-05-04 21:51 32.53122 -116.52161 5484 ft 195 kts 88°
2026-05-04 21:52 32.53142 -116.50559 5487 ft 194 kts 89°
2026-05-04 21:52 32.53160 -116.48947 5482 ft 194 kts 88°
2026-05-04 21:52 32.53174 -116.47343 5481 ft 194 kts 89°
2026-05-04 21:52 32.53191 -116.45741 5481 ft 195 kts 89°
2026-05-04 21:53 32.53209 -116.44127 5480 ft 197 kts 89°
2026-05-04 21:53 32.53226 -116.42496 5474 ft 196 kts 89°
2026-05-04 21:53 32.53241 -116.40901 5473 ft 195 kts 89°
2026-05-04 21:53 32.53258 -116.39291 5469 ft 195 kts 90°
2026-05-04 21:54 32.53274 -116.37668 5472 ft 197 kts 91°
2026-05-04 21:54 32.53284 -116.36591 5472 ft 198 kts 91°
2026-05-04 21:54 32.53304 -116.34427 5475 ft 198 kts 90°
2026-05-04 21:54 32.53322 -116.32794 5470 ft 197 kts 90°
2026-05-04 21:55 32.53336 -116.31162 5469 ft 197 kts 90°
2026-05-04 21:55 32.53344 -116.30081 5469 ft 198 kts 90°
2026-05-04 21:55 32.53365 -116.27913 5467 ft 199 kts 91°
2026-05-04 21:55 32.53373 -116.26823 5488 ft 198 kts 91°
2026-05-04 21:56 32.53388 -116.25182 5490 ft 198 kts 91°
2026-05-04 21:56 32.53406 -116.23543 5492 ft 198 kts 91°
2026-05-04 21:56 32.53419 -116.21899 5487 ft 199 kts 90°
2026-05-04 21:56 32.53429 -116.20281 5496 ft 198 kts 91°
2026-05-04 21:57 32.53443 -116.18632 5491 ft 200 kts 92°
2026-05-04 21:57 32.53457 -116.16982 5490 ft 201 kts 92°
2026-05-04 21:57 32.53473 -116.15344 5492 ft 200 kts 92°
2026-05-04 21:57 32.53486 -116.13683 5492 ft 202 kts 92°
2026-05-04 21:58 32.53503 -116.11999 5488 ft 205 kts 92°
2026-05-04 21:58 32.53513 -116.10329 5482 ft 205 kts 92°
2026-05-04 21:58 32.53523 -116.09015 5486 ft 204 kts 92°
2026-05-04 21:58 32.53533 -116.07667 5482 ft 203 kts 93°
2026-05-04 21:59 32.53547 -116.06017 5478 ft 202 kts 92°
2026-05-04 21:59 32.53556 -116.04348 5476 ft 202 kts 94°
2026-05-04 21:59 32.53566 -116.02674 5475 ft 203 kts 92°
2026-05-04 21:59 32.53562 -116.01028 5474 ft 202 kts 95°
2026-05-04 22:00 32.53587 -115.99385 5471 ft 199 kts 91°
2026-05-04 22:00 32.53615 -115.97746 5469 ft 199 kts 93°
2026-05-04 22:00 32.53615 -115.96099 5463 ft 199 kts 94°
2026-05-04 22:00 32.53622 -115.94465 5471 ft 198 kts 92°
2026-05-04 22:01 32.53632 -115.92821 5473 ft 199 kts 92°
2026-05-04 22:01 32.53642 -115.91191 5472 ft 200 kts 90°
2026-05-04 22:01 32.53656 -115.89550 5466 ft 198 kts 93°
2026-05-04 22:01 32.53662 -115.87920 5456 ft 194 kts 93°
2026-05-04 22:02 32.53672 -115.86325 5457 ft 193 kts 93°
2026-05-04 22:02 32.53679 -115.84756 5451 ft 192 kts 92°
2026-05-04 22:02 32.53688 -115.83172 5448 ft 191 kts 93°
2026-05-04 22:02 32.53697 -115.81593 5445 ft 191 kts 93°
2026-05-04 22:03 32.53703 -115.80013 5440 ft 190 kts 93°
2026-05-04 22:03 32.53713 -115.78475 5442 ft 188 kts 92°
2026-05-04 22:03 32.53721 -115.76922 5436 ft 188 kts 93°
2026-05-04 22:03 32.53729 -115.75369 5446 ft 188 kts 92°
2026-05-04 22:04 32.53736 -115.73838 5444 ft 188 kts 93°
2026-05-04 22:04 32.53742 -115.72286 5444 ft 187 kts 92°
2026-05-04 22:04 32.53749 -115.70746 5438 ft 185 kts 93°
2026-05-04 22:04 32.53756 -115.69221 5433 ft 184 kts 92°
2026-05-04 22:05 32.53767 -115.67716 5443 ft 184 kts 92°
2026-05-04 22:05 32.53770 -115.66177 5447 ft 188 kts 93°
2026-05-04 22:05 32.53771 -115.64642 5443 ft 187 kts 92°
2026-05-04 22:05 32.53784 -115.63093 5452 ft 188 kts 91°
2026-05-04 22:06 32.53799 -115.61549 5435 ft 186 kts 92°
2026-05-04 22:06 32.53794 -115.60046 5433 ft 182 kts 93°
2026-05-04 22:06 32.53796 -115.58547 5437 ft 180 kts 92°
2026-05-04 22:06 32.53809 -115.57050 5419 ft 179 kts 92°
2026-05-04 22:07 32.53861 -115.55612 5087 ft 172 kts 88°
2026-05-04 22:07 32.53907 -115.54285 4741 ft 154 kts 92°
2026-05-04 22:07 32.53877 -115.53055 4428 ft 143 kts 96°
2026-05-04 22:07 32.53826 -115.51900 4094 ft 141 kts 98°
2026-05-04 22:08 32.53744 -115.50758 3826 ft 137 kts 97°
2026-05-04 22:08 32.53713 -115.49628 3466 ft 137 kts 90°
2026-05-04 22:08 32.53755 -115.48519 3243 ft 134 kts 89°
2026-05-04 22:08 32.53739 -115.47382 2892 ft 137 kts 96°
2026-05-04 22:09 32.53639 -115.46249 2482 ft 139 kts 98°
2026-05-04 22:09 32.53544 -115.45088 2185 ft 138 kts 99°
2026-05-04 22:09 32.53383 -115.43988 1881 ft 135 kts 101°
2026-05-04 22:09 32.53220 -115.42937 1746 ft 120 kts 98°
2026-05-04 22:10 32.53100 -115.41989 1555 ft 116 kts 95°
2026-05-04 22:10 32.53086 -115.41038 1366 ft 114 kts 89°
2026-05-04 22:10 32.53075 -115.40096 1106 ft 113 kts 88°
2026-05-04 22:10 32.53103 -115.39234 827 ft 101 kts 77°
2026-05-04 22:11 32.53544 -115.38754 642 ft 84 kts 356°
2026-05-04 22:11 32.53990 -115.39077 410 ft 90 kts 283°
2026-05-04 22:11 32.53887 -115.39855 279 ft 97 kts 255°
2026-05-04 22:11 32.53829 -115.40601 222 ft 88 kts 262°
2026-05-04 22:12 32.53822 -115.41309 115 ft 80 kts 267°
2026-05-04 22:12 32.53826 -115.41866 43 ft 57 kts 266°
2026-05-04 22:12 32.53831 -115.42184 43 ft 11 kts 304°
2026-05-04 22:12 32.53829 -115.42171 43 ft 11 kts 78°
2026-05-04 22:13 32.53832 -115.42115 43 ft 1 kts 87°
2026-05-04 22:17 32.53830 -115.42086 44 ft 16 kts 94°
2026-05-04 22:17 32.53798 -115.41849 40 ft 16 kts 115°
2026-05-04 22:18 32.53796 -115.41838 40 ft 0 kts 88°